When you browse on this site, cookies collect data to enhance your experience and personalize the content and advertising you see.
Visit our Privacy Policy to learn more. By continuing to use the site, you agree to this use of cookies and data.
  • In United Kingdom
  • List of Countries
  • For 7 days
  • Water Temperature
  • Weather Map
  • Weather Widgets
  • user-avatar
    Login

    Hourly Weather Sevenoaks

    Today, 9 April, Thursday

    Time Temperature Precipitation Wind Pressure Humidity
    00:00 +11°C° 0 mm 1 mps 758 mmHg 74%
    01:00 +11°C° 0 mm 1 mps 758 mmHg 75%
    02:00 +10°C° 0 mm 1 mps 757 mmHg 75%
    03:00 +10°C° 0 mm 1 mps 757 mmHg 76%
    04:00 +10°C° 0 mm 1 mps 758 mmHg 78%
    05:00 +9°C° 0 mm 2 mps 758 mmHg 79%
    06:00 +9°C° 0 mm 2 mps 758 mmHg 80%
    07:00 +12°C° 0 mm 2 mps 758 mmHg 75%
    08:00 +13°C° 0 mm 3 mps 759 mmHg 70%
    09:00 +14°C° 0 mm 3 mps 759 mmHg 65%
    10:00 +17°C° 0 mm 3 mps 759 mmHg 63%
    11:00 +18°C° 0 mm 4 mps 759 mmHg 60%
    12:00 +19°C° 0 mm 4 mps 759 mmHg 58%
    13:00 +19°C° 0 mm 4 mps 759 mmHg 58%
    14:00 +18°C° 0 mm 4 mps 758 mmHg 59%
    15:00 +18°C° 0 mm 4 mps 758 mmHg 59%
    16:00 +17°C° 0 mm 4 mps 758 mmHg 62%
    17:00 +14°C° 0 mm 4 mps 758 mmHg 65%
    18:00 +12°C° 0 mm 3 mps 758 mmHg 69%
    19:00 +12°C° 0 mm 3 mps 758 mmHg 68%
    20:00 +11°C° 0 mm 3 mps 759 mmHg 68%
    21:00 +10°C° 0 mm 3 mps 759 mmHg 68%
    22:00 +9°C° 0 mm 3 mps 759 mmHg 70%
    23:00 +9°C° 0 mm 3 mps 759 mmHg 73%

    Tomorrow, 10 April, Friday

    Time Temperature Precipitation Wind Pressure Humidity
    00:00 +9°C° 0 mm 3 mps 760 mmHg 75%
    01:00 +9°C° 0 mm 3 mps 759 mmHg 78%
    02:00 +9°C° 0 mm 2 mps 759 mmHg 80%
    03:00 +9°C° 0 mm 2 mps 758 mmHg 83%
    04:00 +9°C° 0 mm 2 mps 759 mmHg 84%
    05:00 +9°C° 0 mm 2 mps 759 mmHg 84%
    06:00 +9°C° 0 mm 2 mps 759 mmHg 85%
    07:00 +12°C° 0 mm 2 mps 759 mmHg 79%
    08:00 +13°C° 0 mm 3 mps 759 mmHg 74%
    09:00 +16°C° 0 mm 3 mps 759 mmHg 69%
    10:00 +17°C° 0 mm 3 mps 759 mmHg 65%
    11:00 +18°C° 0 mm 3 mps 759 mmHg 62%
    12:00 +19°C° 0 mm 4 mps 759 mmHg 59%
    13:00 +19°C° 0 mm 4 mps 758 mmHg 59%
    14:00 +19°C° 0 mm 4 mps 758 mmHg 59%
    15:00 +19°C° 0 mm 4 mps 758 mmHg 59%
    16:00 +18°C° 0 mm 3 mps 757 mmHg 65%
    17:00 +17°C° 0 mm 3 mps 757 mmHg 71%
    18:00 +16°C° 0 mm 3 mps 757 mmHg 77%
    19:00 +14°C° 0 mm 3 mps 757 mmHg 77%
    20:00 +13°C° 0 mm 2 mps 758 mmHg 78%
    21:00 +12°C° 0 mm 2 mps 758 mmHg 78%
    22:00 +12°C° 0 mm 2 mps 758 mmHg 78%
    23:00 +12°C° 0 mm 2 mps 758 mmHg 79%

    Day after tomorrow, 11 April, Saturday

    Time Temperature Precipitation Wind Pressure Humidity
    00:00 +10°C° 0 mm 2 mps 758 mmHg 79%
    01:00 +10°C° 0 mm 2 mps 757 mmHg 81%
    02:00 +10°C° 0 mm 2 mps 757 mmHg 82%
    03:00 +10°C° 0 mm 2 mps 757 mmHg 84%
    04:00 +11°C° 0 mm 1 mps 757 mmHg 84%
    05:00 +11°C° 0 mm 1 mps 757 mmHg 84%
    06:00 +11°C° 0 mm 1 mps 757 mmHg 84%
    07:00 +13°C° 0 mm 1 mps 757 mmHg 78%
    08:00 +15°C° 0 mm 2 mps 757 mmHg 72%
    09:00 +17°C° 0 mm 2 mps 757 mmHg 67%
    10:00 +18°C° 0 mm 2 mps 757 mmHg 64%
    11:00 +19°C° 0 mm 2 mps 757 mmHg 61%
    12:00 +20°C° 0 mm 2 mps 757 mmHg 58%
    13:00 +20°C° 0.1 mm 2 mps 756 mmHg 57%
    14:00 +20°C° 0.1 mm 2 mps 756 mmHg 57%
    15:00 +20°C° 0.1 mm 2 mps 756 mmHg 57%
    16:00 +19°C° 0 mm 2 mps 755 mmHg 63%
    17:00 +18°C° 0 mm 2 mps 755 mmHg 69%
    18:00 +17°C° 0 mm 2 mps 755 mmHg 74%
    19:00 +16°C° 0 mm 2 mps 755 mmHg 76%
    20:00 +14°C° 0 mm 1 mps 755 mmHg 78%
    21:00 +13°C° 0 mm 1 mps 755 mmHg 80%
    22:00 +13°C° 0 mm 1 mps 755 mmHg 81%
    23:00 +13°C° 0 mm 1 mps 755 mmHg 81%

    12 April, Sunday

    Time Temperature Precipitation Wind Pressure Humidity
    00:00 +12°C° 0 mm 1 mps 755 mmHg 82%
    01:00 +12°C° 0 mm 1 mps 754 mmHg 83%
    02:00 +12°C° 0 mm 1 mps 753 mmHg 84%
    03:00 +11°C° 0 mm 1 mps 753 mmHg 85%
    04:00 +11°C° 0 mm 1 mps 752 mmHg 84%
    05:00 +11°C° 0 mm 1 mps 752 mmHg 84%
    06:00 +10°C° 0 mm 0 mps 752 mmHg 84%
    07:00 +12°C° 0 mm 0 mps 752 mmHg 78%
    08:00 +14°C° 0 mm 0 mps 751 mmHg 72%
    09:00 +16°C° 0 mm 0 mps 751 mmHg 65%
    10:00 +19°C° 0.1 mm 1 mps 751 mmHg 61%
    11:00 +20°C° 0.1 mm 1 mps 750 mmHg 58%
    12:00 +20°C° 0.1 mm 2 mps 750 mmHg 54%
    13:00 +19°C° 0.3 mm 2 mps 749 mmHg 56%
    14:00 +19°C° 0.3 mm 3 mps 749 mmHg 58%
    15:00 +19°C° 0.3 mm 3 mps 748 mmHg 60%
    16:00 +18°C° 0 mm 3 mps 748 mmHg 65%
    17:00 +17°C° 0 mm 2 mps 747 mmHg 69%
    18:00 +16°C° 0 mm 2 mps 747 mmHg 73%
    19:00 +15°C° 0 mm 2 mps 747 mmHg 76%
    20:00 +12°C° 0 mm 3 mps 747 mmHg 79%
    21:00 +11°C° 0 mm 3 mps 747 mmHg 82%
    22:00 +11°C° 0 mm 3 mps 747 mmHg 84%
    23:00 +10°C° 0 mm 3 mps 748 mmHg 85%

    13 April, Monday

    Time Temperature Precipitation Wind Pressure Humidity
    00:00 +10°C° 0 mm 4 mps 748 mmHg 87%
    01:00 +10°C° 0 mm 4 mps 748 mmHg 87%
    02:00 +9°C° 0 mm 5 mps 748 mmHg 88%
    03:00 +9°C° 0 mm 5 mps 748 mmHg 88%
    04:00 +8°C° 0 mm 5 mps 749 mmHg 86%
    05:00 +8°C° 0 mm 6 mps 749 mmHg 84%
    06:00 +8°C° 0 mm 6 mps 750 mmHg 82%
    07:00 +8°C° 0 mm 7 mps 750 mmHg 81%
    08:00 +9°C° 0 mm 8 mps 751 mmHg 79%
    09:00 +10°C° 0 mm 9 mps 752 mmHg 77%
    10:00 +10°C° 0 mm 9 mps 752 mmHg 74%
    11:00 +10°C° 0 mm 9 mps 752 mmHg 71%
    12:00 +10°C° 0 mm 9 mps 753 mmHg 68%
    13:00 +10°C° 0 mm 9 mps 753 mmHg 68%
    14:00 +8°C° 0 mm 9 mps 754 mmHg 68%
    15:00 +8°C° 0 mm 9 mps 754 mmHg 68%
    16:00 +7°C° 0 mm 9 mps 754 mmHg 66%
    17:00 +6°C° 0 mm 8 mps 755 mmHg 65%
    18:00 +5°C° 0 mm 8 mps 755 mmHg 63%
    19:00 +4°C° 0 mm 8 mps 755 mmHg 67%
    20:00 +4°C° 0 mm 7 mps 756 mmHg 72%
    21:00 +3°C° 0 mm 7 mps 756 mmHg 76%
    22:00 +3°C° 0 mm 7 mps 756 mmHg 74%
    23:00 +4°C° 0 mm 7 mps 757 mmHg 73%

    14 April, Tuesday

    Time Temperature Precipitation Wind Pressure Humidity
    00:00 +4°C° 0 mm 7 mps 757 mmHg 71%
    01:00 +3°C° 0 mm 7 mps 757 mmHg 73%
    02:00 +3°C° 0 mm 6 mps 757 mmHg 74%
    03:00 +2°C° 0 mm 6 mps 757 mmHg 75%
    04:00 +2°C° 0 mm 6 mps 757 mmHg 73%
    05:00 +2°C° 0 mm 6 mps 757 mmHg 72%
    06:00 +2°C° 0 mm 6 mps 757 mmHg 71%
    07:00 +3°C° 0 mm 7 mps 757 mmHg 65%
    08:00 +4°C° 0 mm 8 mps 756 mmHg 59%
    09:00 +5°C° 0 mm 9 mps 756 mmHg 54%
    10:00 +6°C° 0 mm 9 mps 756 mmHg 52%
    11:00 +6°C° 0 mm 9 mps 756 mmHg 50%
    12:00 +7°C° 0 mm 9 mps 756 mmHg 47%
    13:00 +7°C° 0 mm 9 mps 755 mmHg 49%
    14:00 +7°C° 0 mm 9 mps 755 mmHg 50%
    15:00 +7°C° 0 mm 9 mps 754 mmHg 51%
    16:00 +6°C° 0 mm 8 mps 754 mmHg 54%
    17:00 +5°C° 0 mm 8 mps 753 mmHg 57%
    18:00 +5°C° 0 mm 7 mps 753 mmHg 60%
    19:00 +4°C° 0 mm 7 mps 753 mmHg 62%
    20:00 +4°C° 0 mm 6 mps 753 mmHg 63%
    21:00 +4°C° 0 mm 6 mps 753 mmHg 65%
    22:00 +4°C° 0 mm 6 mps 753 mmHg 66%
    23:00 +4°C° 0 mm 6 mps 753 mmHg 67%
    Show more